Location: Borbetomagus
(49.6328°N, 8.3592°E)
Time: 01:21:11
(UTC+00:00)

ISS - Visible Passes

Search period start: 22 January 2026 00:00
Search period end: 01 February 2026 00:00
Orbit: 413 x 423 km, 51.6° (Epoch: 21 January)

Date Brightness Start Highest point End Pass type
(mag) Time Alt. Az. Time Alt. Az. Time Alt. Az.
22 Jan -3.6 16:53:04 10° W 16:56:24 60° N 16:59:23 12° ENE visible
22 Jan -2.6 18:30:00 10° WNW 18:32:19 42° WNW 18:32:19 42° WNW visible
23 Jan -3.8 17:41:58 10° WNW 17:45:19 69° N 17:46:22 39° E visible
23 Jan -0.4 19:18:50 10° W 19:19:18 13° W 19:19:18 13° W visible
24 Jan -3.6 16:53:55 10° WNW 16:57:13 61° N 17:00:26 11° E visible
24 Jan -2.8 18:30:44 10° WNW 18:33:23 46° WSW 18:33:23 46° WSW visible
25 Jan -3.8 17:42:38 10° WNW 17:45:59 80° SSW 17:47:30 30° ESE visible
25 Jan -0.5 19:19:52 10° W 19:20:26 13° W 19:20:26 13° W visible
26 Jan -3.8 16:54:31 10° WNW 16:57:52 81° NNE 17:01:12 10° ESE visible
26 Jan -2.1 18:31:29 10° W 18:34:25 29° SW 18:34:38 29° SSW visible
27 Jan -2.7 17:43:11 10° WNW 17:46:22 42° SSW 17:48:57 14° SE visible
28 Jan -3.2 16:54:56 10° WNW 16:58:14 60° SSW 17:01:32 10° SE visible
28 Jan -0.9 18:32:41 10° WSW 18:34:28 14° SW 18:36:15 10° S visible
29 Jan -1.2 17:43:52 10° W 17:46:26 21° SW 17:49:00 10° SSE visible
30 Jan -1.8 16:55:20 10° W 16:58:19 30° SSW 17:01:16 10° SSE visible
